Theta_e
303 303 302 300 299 297 295 293 290 287 285 284 284 284 284 285 285 288 288 287 286 285 286 285 284 284 283 282 282 282 282 283 283 280 281 282 281 281 282 282 282 282 282
301 301 300 299 295 292 291 289 287 285 284 283 283 283 283 283 284 286 286 286 285 284 284 284 282 281 281 281 281 281 282 282 282 279 280 280 280 281 281 280 280 280 281
300 299 298 297 294 291 290 288 286 285 284 283 282 282 282 282 283 283 285 285 285 284 283 283 281 280 279 279 280 280 281 279 280 279 279 279 280 280 280 281 281 281 281
297 297 296 296 294 291 290 287 286 284 283 282 282 282 281 281 281 281 282 284 284 284 283 283 281 280 279 279 279 280 279 279 278 278 278 278 278 279 279 278 279 281 280
296 296 295 294 293 291 290 289 287 284 283 282 282 281 281 280 280 280 281 281 283 282 282 281 281 281 282 281 279 280 279 279 278 278 277 277 278 278 277 279 277 279 279
294 294 294 292 290 288 287 286 285 284 282 281 280 280 279 280 283 284 282 281 281 281 280 279 280 279 281 282 282 282 281 280 279 279 278 277 277 278 279 278 277 276 275
293 291 291 289 287 287 286 284 284 283 282 281 281 280 280 280 284 285 284 282 281 281 280 279 278 279 279 280 282 283 282 282 281 279 278 278 278 279 279 277 277 276 276
290 289 288 288 287 286 284 283 283 282 281 281 280 280 280 280 285 285 283 282 282 281 281 280 279 278 278 278 279 280 281 281 281 282 281 281 281 281 280 279 278 277 277
288 288 287 287 286 285 284 283 283 281 281 281 281 280 280 280 285 285 283 281 281 281 280 280 280 279 280 281 278 278 278 278 280 282 283 283 282 282 281 281 277 274 274
287 287 287 286 285 284 284 284 284 283 281 280 280 280 280 280 285 286 283 281 281 280 279 279 280 280 281 282 280 278 277 278 278 278 278 279 281 281 282 279 278 274 273
286 285 285 286 284 285 284 284 283 281 279 279 278 279 279 280 284 286 285 281 281 280 280 279 280 283 283 282 283 281 280 281 280 278 277 278 278 278 277 277 276 274 273
284 284 283 283 284 284 283 282 281 280 278 278 278 278 279 280 283 286 287 284 284 283 283 282 282 283 284 284 283 283 283 283 281 280 279 278 277 277 276 275 275 275 275
281 280 282 282 283 282 282 281 281 281 280 279 279 278 278 278 280 285 287 287 286 284 285 284 284 284 284 284 285 284 283 283 282 280 279 277 277 276 275 274 274 273 272
282 281 281 281 281 281 282 282 281 280 280 279 279 278 278 278 278 280 283 285 286 286 285 284 284 283 283 282 281 283 282 282 280 279 277 276 275 273 272 273 271 271 269
281 281 282 282 282 281 282 282 282 283 282 281 281 281 280 279 280 281 282 282 284 285 285 283 283 281 280 280 279 278 279 278 277 277 275 274 273 272 271 272 270 269 267
281 282 282 282 281 281 281 281 283 283 283 284 284 283 284 284 284 283 283 283 284 285 283 278 279 279 279 278 277 276 276 275 275 274 273 271 270 270 269 270 269 267 265
283 283 283 282 282 281 281 280 279 280 285 285 285 285 284 283 284 284 285 285 285 284 280 278 277 276 277 276 276 275 274 273 271 271 270 269 268 268 266 266 266 265 263
281 280 283 282 281 281 281 281 280 280 280 280 280 280 279 280 281 282 282 283 280 280 279 276 275 275 275 274 272 271 270 269 268 267 267 266 265 264 264 263 263 262 261
277 277 277 278 278 278 278 278 279 278 279 278 275 276 273 279 279 279 279 278 276 274 272 272 272 271 270 270 269 267 266 266 265 264 264 262 262 262 261 261 261 259 259
270 268 271 274 273 274 275 275 275 275 276 275 275 277 273 274 274 272 270 270 271 271 269 269 268 268 267 266 264 263 262 261 261 260 261 261 261 260 260 259 259 259 259
269 268 264 270 271 271 271 272 273 273 273 273 273 269 269 273 271 270 269 268 268 268 266 266 264 263 262 261 261 260 260 262 260 260 260 259 259 258 258 259 259 259 258
266 266 267 266 267 267 266 267 268 268 268 268 267 267 272 268 268 267 266 265 264 263 263 263 262 261 260 259 259 260 259 259 259 258 259 257 257 258 257 258 258 258 258
266 266 265 264 264 263 265 264 265 266 265 265 265 265 265 265 264 264 263 262 260 259 258 258 259 258 258 256 258 259 259 259 259 259 258 257 257 258 257 257 257 256 256
264 264 263 263 262 263 263 262 262 260 261 262 262 262 262 261 261 260 259 259 258 258 256 255 255 256 257 256 256 256 256 256 257 256 256 256 256 256 256 256 256 256 256
261 261 261 261 260 260 261 261 261 260 260 260 261 260 260 259 258 258 258 257 256 256 256 254 254 254 254 254 255 255 255 256 256 255 255 254 255 255 255 255 255 255 255
259 259 259 259 259 259 259 259 260 259 259 259 259 259 258 258 258 258 258 256 255 255 255 256 255 254 254 254 254 255 254 256 253 253 255 255 254 254 254 253 253 253 253
Wind_Speed
16 15 15 13 12 10 10 10 10 9 9 11 10 10 10 11 11 13 12 14 13 11 10 10 10 9 6 5 4 4 4 2 3 3 3 3 4 4 4 4 5 6 7
16 16 16 14 12 11 10 11 10 11 10 11 10 9 9 9 10 13 14 14 15 14 13 12 11 6 8 6 5 6 4 3 2 4 2 2 4 4 5 6 5 5 7
14 14 15 15 14 13 13 12 12 12 12 11 12 12 11 10 11 10 13 13 14 13 13 12 12 10 8 6 6 6 4 3 3 2 2 2 3 4 5 6 7 7 6
13 14 14 14 15 13 12 12 13 14 14 14 14 14 13 11 9 9 12 13 13 13 13 12 11 9 8 8 6 7 6 5 4 4 4 4 4 3 5 6 7 6 8
14 14 14 12 13 11 11 12 12 12 12 12 13 11 11 11 10 11 9 12 12 12 11 10 9 7 10 10 6 8 8 6 5 5 5 5 5 5 6 4 7 8 9
14 13 11 10 10 10 10 11 11 11 10 11 13 14 13 9 17 20 14 11 11 11 11 9 8 8 9 14 13 11 11 9 8 6 6 8 8 6 6 6 7 8 7
12 10 10 10 11 11 10 10 11 12 11 12 13 13 14 12 23 23 19 11 11 11 10 9 7 6 7 7 13 14 13 15 12 8 9 8 8 8 8 9 9 9 10
9 9 9 10 10 11 11 11 11 10 12 12 12 12 11 11 23 22 19 11 10 10 10 9 8 7 10 9 8 8 9 9 11 9 11 10 10 8 8 10 11 10 8
8 8 8 9 9 10 11 11 9 9 9 10 9 10 12 9 23 23 17 10 9 9 8 8 9 9 13 17 9 9 9 9 10 18 19 19 17 17 16 9 7 8 10
7 8 7 8 9 9 10 10 8 7 7 6 7 7 8 10 22 24 17 8 9 7 7 7 13 12 16 18 11 9 9 9 8 8 7 12 14 13 14 8 6 8 9
6 7 7 8 9 9 9 8 8 8 7 8 8 7 8 10 17 26 25 10 10 9 8 8 8 21 19 19 19 11 11 6 10 8 8 7 7 8 7 7 7 8 8
6 5 4 5 5 6 8 8 10 11 11 10 10 8 7 9 17 26 28 21 18 10 10 8 8 18 21 21 17 21 20 15 8 8 8 8 8 7 7 6 8 9 8
6 6 7 7 7 8 9 9 8 9 8 8 8 8 8 7 7 21 26 25 20 10 6 10 14 18 20 18 22 22 15 8 8 8 8 7 6 4 4 4 7 8 10
7 7 7 7 8 7 6 6 6 6 6 6 6 7 6 6 7 7 8 12 18 13 12 10 11 13 15 12 8 11 5 5 5 6 6 3 2 2 5 5 6 6 8
7 6 6 5 6 7 5 5 5 6 7 7 7 7 8 8 9 12 12 9 9 11 8 4 6 8 8 8 6 5 5 6 6 6 5 4 4 4 5 4 5 6 9
6 5 5 5 5 6 6 5 3 7 11 10 10 8 6 10 13 21 22 22 20 18 7 6 8 8 8 7 7 6 6 5 5 4 3 3 4 5 6 6 7 7 9
6 6 5 4 5 6 5 5 4 3 6 9 8 7 7 5 10 15 18 18 16 13 7 6 7 6 7 6 6 6 5 3 4 3 3 3 4 5 6 7 7 7 8
5 5 4 4 4 4 4 3 3 4 5 4 5 5 4 5 7 10 11 11 7 8 6 6 7 6 5 5 4 5 4 4 3 3 3 3 4 5 6 6 6 6 7
4 3 3 3 2 3 3 2 3 3 4 4 2 3 2 5 4 4 2 3 5 4 3 3 3 5 5 5 4 4 3 3 3 3 3 3 4 4 5 5 5 6 7
5 6 5 2 3 3 2 2 3 4 4 5 5 5 3 4 5 3 2 2 3 3 4 4 3 3 3 3 3 3 3 3 4 4 4 4 4 4 5 5 5 6 6
4 4 4 3 4 4 2 0 1 2 3 3 3 1 2 3 3 2 2 1 1 2 3 3 3 3 3 3 3 4 4 4 4 4 4 4 4 4 5 5 5 6 6
5 5 5 5 4 4 4 3 3 2 2 1 0 2 2 1 1 2 2 2 2 1 1 2 3 3 4 5 5 5 5 5 4 4 4 4 4 5 5 5 5 6 6
6 6 6 5 5 4 4 5 4 4 3 3 2 1 2 2 1 1 1 0 1 1 1 1 2 2 3 3 3 4 5 5 5 4 5 5 5 5 5 5 6 6 6
6 6 5 4 5 4 4 4 4 4 4 3 3 2 2 2 3 3 2 2 2 2 2 3 3 5 3 4 4 5 5 4 3 5 6 6 6 5 6 6 6 7 6
6 5 5 4 4 4 3 3 3 3 3 3 3 3 3 3 4 4 3 3 3 4 5 4 4 6 8 9 8 8 7 8 8 6 5 7 8 8 6 6 6 6 6
4 4 3 3 3 3 3 3 3 3 3 3 3 4 4 4 5 5 5 5 5 5 6 5 7 10 10 9 10 10 9 11 9 11 8 7 8 8 7 8 9 7 7
Wind_Direction
204 206 205 198 193 187 188 184 181 166 163 170 170 169 167 171 169 166 161 157 157 152 152 146 138 142 130 118 100 104 102 114 176 145 218 186 237 248 262 292 314 320 323
201 199 202 194 182 179 183 179 168 169 168 168 162 167 169 171 175 167 165 163 161 160 156 151 149 138 136 135 148 140 155 158 186 199 177 232 250 273 289 302 314 313 311
200 199 202 197 188 185 186 180 174 170 168 167 167 169 180 189 169 167 161 164 162 161 160 160 156 156 151 159 153 158 166 162 184 208 232 238 273 281 296 294 305 302 294
204 203 204 203 198 188 186 183 180 177 174 174 178 176 176 170 172 169 159 164 165 164 163 164 163 164 160 157 164 174 170 172 193 221 237 254 257 288 286 293 297 297 303
208 209 210 197 197 191 188 188 185 183 185 185 177 177 174 178 168 166 170 154 161 160 166 158 160 163 169 176 172 179 177 188 200 217 235 247 257 266 268 302 294 301 304
211 210 202 191 184 186 182 181 181 186 185 176 181 177 174 181 179 175 165 160 159 159 165 166 158 159 187 194 195 191 192 190 207 213 234 242 257 263 271 279 289 297 309
206 204 196 184 180 181 176 177 185 188 179 190 191 182 184 179 178 176 168 159 161 169 166 165 169 178 188 197 212 216 217 221 223 218 236 239 254 257 270 275 278 274 277
206 199 188 187 183 176 174 183 182 180 186 189 192 193 182 178 178 175 167 161 162 165 168 177 182 177 198 194 203 219 224 221 225 226 231 245 250 257 258 264 275 279 280
202 203 189 185 183 176 180 183 182 177 186 184 192 181 176 167 173 176 171 164 162 171 174 174 188 202 209 207 207 220 225 236 239 244 249 256 258 258 254 266 237 256 274
197 197 183 173 176 183 177 176 170 173 171 150 160 180 168 165 179 180 173 175 163 170 174 196 203 212 221 216 210 212 236 238 222 232 243 257 261 261 264 216 241 253 273
161 160 168 172 168 170 156 152 147 143 135 132 142 148 165 179 183 185 183 182 182 185 186 201 209 220 221 227 227 223 225 250 242 232 237 244 246 241 235 230 224 238 254
129 136 137 133 133 142 144 144 146 147 153 152 157 175 190 192 196 193 195 196 192 192 198 205 201 215 222 223 227 237 240 244 236 234 238 242 240 240 237 233 235 239 249
104 105 119 125 131 137 145 151 156 165 168 165 174 186 190 191 208 205 203 207 204 212 215 212 202 217 222 227 229 234 235 233 243 250 245 252 245 250 232 234 242 255 262
118 121 125 131 134 139 145 152 154 171 180 180 187 196 188 189 202 203 211 215 225 218 220 227 218 215 212 216 216 231 219 225 229 243 251 252 186 218 249 257 267 274 270
114 121 135 135 140 144 145 164 177 190 193 186 195 195 186 198 211 205 199 205 216 225 226 233 205 209 212 211 203 189 199 208 220 230 234 240 247 262 268 266 264 278 279
126 135 138 142 148 148 151 130 162 203 198 208 205 199 206 223 207 206 210 215 218 225 221 213 225 224 219 204 195 191 201 209 229 218 203 229 259 275 285 291 286 274 284
132 135 133 146 155 151 150 161 153 55 198 208 209 196 199 201 198 204 213 220 225 219 224 208 228 219 217 208 210 213 214 180 139 182 225 255 274 280 282 281 285 286 289
115 116 144 152 145 135 153 162 152 169 171 150 132 153 166 197 223 215 222 216 219 234 217 205 217 223 218 199 178 173 167 163 190 214 230 244 256 267 272 274 280 284 286
113 127 138 123 120 131 143 168 185 197 203 175 163 126 27 180 164 149 181 188 193 180 164 163 165 174 175 172 164 159 166 184 187 197 218 222 232 243 258 270 273 270 278
78 65 58 104 122 120 137 172 191 207 202 195 200 193 155 129 171 148 105 132 160 166 170 169 170 167 166 167 159 159 169 174 188 196 207 209 218 229 246 251 254 267 268
58 58 45 69 64 54 45 301 277 234 228 217 209 175 179 229 171 151 138 147 181 170 175 177 171 172 172 170 169 177 193 198 195 199 205 208 212 229 235 250 258 257 261
60 51 43 43 48 51 41 30 23 9 359 307 15 318 247 87 148 185 192 188 176 166 158 182 181 184 182 182 184 193 201 211 204 205 211 207 216 226 231 240 247 254 259
63 62 55 48 49 47 46 35 32 29 28 25 7 333 354 353 347 282 252 180 175 197 164 217 228 203 189 197 203 215 212 213 216 210 210 214 218 229 226 238 240 245 251
63 66 70 62 48 49 39 33 30 31 15 8 349 335 321 319 299 287 274 250 236 229 223 224 239 243 236 224 215 215 229 235 224 222 217 224 227 223 234 236 239 245 254
53 57 54 50 46 45 40 31 15 355 342 328 318 303 303 287 279 270 266 250 249 249 238 229 233 241 240 237 234 230 229 237 226 216 210 221 232 233 230 234 238 244 248
60 62 59 51 46 32 13 347 330 313 300 295 285 278 276 272 271 270 263 252 250 247 247 242 239 235 242 244 242 239 234 234 227 224 215 219 222 226 225 228 233 237 239